{"data":{"norad_id":49436,"epoch":"2026-05-25T03:26:59.137728Z","epoch_age_seconds":65690,"freshness":"FRESH","line1":"1 49436U 21104AE  26145.14374002 -.00016474  00000+0 -10164-2 0  9990","line2":"2 49436  53.2140 225.9074 0000593  77.0213 283.0845 15.08944431250454","mean_motion":15.08944431,"eccentricity":5.93e-5,"inclination_deg":53.214,"raan_deg":225.9074,"arg_perigee_deg":77.0213,"mean_anomaly_deg":283.0845,"bstar":-0.0010164,"rev_number":25045,"period_min":95.430949637137,"perigee_km":539.01399220568,"apogee_km":539.83441496442,"semimajor_km":6917.561203585,"source":"CELESTRAK","updated_at":"2026-05-25T13:38:16.800628Z"}}